Date,TemperatureHighF,TemperatureAvgF,TemperatureLowF,DewpointHighF,DewpointAvgF,DewpointLowF,HumidityHigh,HumidityAvg,HumidityLow,PressureMaxIn,PressureMinIn,WindSpeedMaxMPH,WindSpeedAvgMPH,GustSpeedMaxMPH,PrecipitationSumIn
2013-1-1,44.4,41.1,37.2,42.0,34.5,25.0,97,78,55,29.99,29.83,6,0,15,0.15
2013-1-2,43.8,37.7,34.9,32.0,28.6,27.1,75,69,63,30.09,29.97,2,0,5,0.09
2013-1-3,40.1,34.7,27.4,30.8,26.8,20.5,89,73,61,30.18,30.07,1,0,4,0.00
2013-1-4,45.4,33.3,24.9,20.4,18.0,14.2,77,55,29,30.23,30.11,15,2,19,0.00
2013-1-5,46.3,36.7,25.0,30.7,20.6,16.5,75,54,31,30.30,30.12,2,0,9,0.00
2013-1-6,51.6,41.0,34.9,34.5,31.1,25.6,88,69,51,30.12,29.93,4,0,12,0.02
2013-1-7,45.4,37.6,31.8,26.0,25.0,24.1,74,61,45,30.34,30.30,0,0,3,0.00
2013-1-8,45.0,42.9,40.8,37.1,36.3,35.4,82,77,71,30.31,30.28,0,0,2,0.00
2013-1-9,57.9,52.7,49.9,47.5,46.0,44.9,85,78,68,30.31,30.25,1,0,6,0.00
2013-1-10,52.7,46.5,42.9,34.2,31.2,28.4,71,56,39,30.37,30.33,0,0,1,0.00
2013-1-11,42.1,40.6,39.9,41.6,40.0,39.1,98,97,97,30.11,30.06,1,0,4,0.09
2013-1-12,60.7,51.1,42.2,55.5,49.4,41.6,99,94,81,30.06,29.97,3,0,6,0.00
2013-1-13,68.6,58.7,50.9,58.7,54.5,50.1,99,87,66,29.99,29.90,6,2,20,0.01
2013-1-14,59.9,53.7,47.4,59.3,53.2,46.9,98,98,98,30.08,29.95,4,1,9,1.48
2013-1-15,47.4,39.7,36.6,46.4,39.2,36.1,98,98,98,30.15,30.01,3,1,13,1.03
2013-1-16,45.1,40.2,35.6,44.6,39.8,35.1,99,98,98,30.01,29.86,2,0,6,0.50
2013-1-17,45.9,38.2,30.2,45.6,37.5,29.5,99,97,96,30.09,29.84,10,2,19,1.33
2013-1-18,39.9,31.5,25.5,29.6,24.8,20.3,97,78,46,30.45,30.08,2,0,8,0.44
2013-1-19,49.1,35.5,24.9,30.0,24.9,21.6,89,68,38,30.40,30.03,4,1,14,0.07
2013-1-20,57.2,40.9,28.0,33.0,26.4,21.3,84,60,29,30.03,29.90,5,1,18,0.00
2013-1-21,55.2,45.0,35.3,27.9,16.4,9.4,36,31,27,29.87,29.78,7,3,26,0.00
2013-1-22,31.0,25.3,21.3,-0.8,-5.6,-9.7,36,26,17,30.20,30.10,5,1,18,0.00
2013-1-23,35.9,31.0,25.6,15.7,11.9,8.7,65,46,34,30.15,29.99,2,0,10,0.00
2013-1-24,26.2,22.4,19.3,4.2,1.3,-1.5,48,40,30,30.43,30.35,3,0,7,0.00
2013-1-25,22.4,21.0,19.9,19.6,16.6,9.1,90,83,59,30.28,30.03,4,0,16,0.00
2013-1-26,36.9,28.1,18.9,27.2,22.3,16.5,92,79,57,30.31,30.01,2,0,8,0.08
2013-1-27,38.5,30.1,22.5,25.1,20.9,16.1,78,69,57,30.50,30.31,3,0,10,0.01
2013-1-28,47.1,43.1,38.8,37.4,35.9,31.9,92,77,58,30.28,30.12,5,2,20,0.03
2013-1-29,65.7,59.1,55.9,51.5,50.7,48.0,82,74,54,29.98,29.92,3,1,13,0.00
2013-1-30,67.6,64.2,57.5,58.8,57.4,55.0,96,79,65,29.51,29.25,8,5,28,0.81
2013-1-31,43.4,34.7,28.3,21.2,18.3,15.1,72,52,37,29.89,29.76,11,3,30,0.06
2013-2-1,31.1,25.7,19.1,5.1,1.4,-1.2,52,35,26,30.30,30.16,6,2,20,0.00
2013-2-2,35.2,26.9,15.6,22.3,10.0,2.9,71,50,31,30.31,29.93,4,1,15,0.00
2013-2-3,44.5,35.2,27.7,24.2,21.8,17.4,83,60,41,29.93,29.74,7,2,24,0.00
2013-2-4,43.1,37.1,31.7,23.3,21.0,17.7,69,53,36,29.92,29.89,3,1,15,0.00
2013-2-5,56.7,48.4,40.6,33.0,30.3,29.4,65,50,38,29.86,29.77,5,2,17,0.00
2013-2-6,56.1,45.3,37.9,23.4,20.9,17.1,55,40,24,30.16,30.03,1,0,5,0.00
2013-2-7,36.5,34.2,33.0,32.9,32.0,31.4,95,92,86,30.13,30.00,3,2,10,0.37
2013-2-8,54.0,44.3,35.6,41.9,27.9,22.3,65,53,38,29.97,29.73,9,4,28,0.19
2013-2-9,51.5,36.9,26.1,23.0,15.5,7.8,75,46,18,30.25,29.97,3,0,10,0.00
2013-2-10,50.2,37.2,25.6,34.1,17.7,8.9,86,47,25,30.39,30.11,4,1,17,0.06
2013-2-11,51.9,49.7,45.7,50.2,47.7,37.7,97,93,72,29.85,29.80,3,2,13,0.08
2013-2-12,56.7,49.5,37.8,32.9,23.9,16.6,62,38,21,29.97,29.82,5,1,18,0.00
2013-2-13,42.6,40.3,36.5,41.5,36.5,28.9,96,87,71,29.72,29.55,4,1,19,0.27
2013-2-14,51.2,43.1,34.9,30.5,27.9,22.4,77,57,35,29.94,29.86,3,1,12,0.01
2013-2-15,58.7,43.4,28.7,35.9,29.4,24.9,89,62,28,30.00,29.81,5,1,21,0.00
2013-2-16,38.5,32.9,25.9,30.3,21.9,9.3,90,65,40,29.88,29.75,6,1,14,0.01
2013-2-17,33.2,26.3,20.4,12.4,3.9,-0.6,59,39,25,30.18,29.85,8,3,24,0.00
2013-2-18,51.6,33.7,18.6,22.3,13.4,3.1,64,45,24,30.30,30.08,4,1,16,0.00
2013-2-19,42.8,36.4,30.1,40.3,27.7,9.7,96,74,30,30.09,29.75,6,1,21,0.11
2013-2-20,48.8,37.9,28.1,15.1,7.2,-0.7,51,30,13,30.06,29.89,7,3,22,0.00
2013-2-21,52.1,37.1,22.4,21.0,12.6,9.2,61,39,19,30.17,30.01,2,0,10,0.00
2013-2-22,39.9,31.7,28.6,30.4,27.9,17.5,96,87,41,30.23,30.05,0,0,4,0.15
2013-2-23,45.0,36.8,31.1,39.8,34.9,30.1,97,93,80,30.07,29.72,2,0,6,0.16
2013-2-24,57.5,45.5,33.9,39.4,27.3,16.2,97,57,22,29.94,29.71,7,2,19,0.00
2013-2-25,39.4,33.3,27.8,21.7,20.2,18.0,75,59,42,30.13,29.94,2,0,7,0.00
2013-2-26,36.2,32.3,29.3,35.4,28.9,19.5,97,88,63,30.07,29.51,4,1,12,0.84
2013-2-27,54.9,42.5,33.5,40.4,34.5,30.2,98,77,41,29.68,29.54,4,1,18,0.03
2013-2-28,44.7,38.6,33.8,33.9,25.3,21.0,77,60,39,29.77,29.58,8,2,27,0.00
2013-3-1,41.2,37.4,33.8,26.9,23.9,20.5,75,58,48,29.82,29.74,3,1,10,0.00
2013-3-2,42.8,33.8,27.1,23.9,19.9,14.5,79,58,38,29.84,29.72,6,1,19,0.00
2013-3-3,40.4,31.0,23.9,18.7,13.9,10.0,62,49,35,29.90,29.78,6,2,15,0.00
2013-3-4,48.2,41.0,37.1,10.6,6.7,5.2,33,24,18,29.97,29.92,2,0,12,0.00
2013-3-5,45.4,39.9,36.6,39.5,38.0,35.6,96,93,72,29.77,29.54,4,1,7,0.62
2013-3-6,41.9,36.2,33.8,25.4,24.1,23.6,67,61,49,29.98,29.79,9,4,21,0.17
2013-3-7,45.0,36.8,31.2,24.9,22.1,20.4,64,55,45,30.17,30.07,5,2,14,0.00
2013-3-8,46.2,40.2,35.3,22.4,21.6,20.0,58,48,35,30.22,30.13,7,2,14,0.00
2013-3-9,59.8,44.5,29.5,28.1,24.1,21.0,71,47,24,30.25,30.13,2,0,7,0.00
2013-3-10,63.9,49.0,32.3,31.9,27.6,23.2,74,46,26,30.20,30.08,4,1,14,0.00
2013-3-11,61.4,59.8,58.2,47.9,47.1,46.0,68,63,58,29.85,29.77,4,2,19,0.00
2013-3-12,59.5,52.5,44.5,36.2,31.5,28.4,54,45,36,29.86,29.70,5,2,16,0.55
2013-3-13,46.3,39.5,33.0,20.7,17.4,13.9,48,41,32,30.05,29.90,8,5,26,0.00
2013-3-14,48.5,45.0,39.8,14.8,12.0,9.6,31,26,21,30.11,30.04,6,3,20,0.00
2013-3-15,59.5,52.1,46.3,33.6,31.6,29.2,61,46,32,29.81,29.77,4,1,18,0.00
2013-3-16,76.2,58.5,39.6,47.8,40.0,31.8,79,53,29,29.77,29.51,7,2,28,0.00
2013-3-17,59.5,46.1,35.2,48.1,41.5,33.4,95,84,66,30.07,29.70,4,1,10,0.00
2013-3-18,35.1,34.1,33.0,34.1,33.1,32.0,96,96,96,29.96,29.80,2,0,6,0.09
2013-3-19,60.4,53.7,45.3,22.0,12.5,1.4,24,19,14,29.94,29.77,8,5,27,0.01
2013-3-20,53.6,48.6,45.4,16.7,12.7,8.4,31,24,16,29.77,29.69,4,1,19,0.00
2013-3-21,32.4,28.8,26.4,8.2,6.8,2.5,45,39,28,29.90,29.80,5,2,15,0.00
2013-3-22,48.5,40.6,36.1,17.0,12.6,8.3,45,32,20,29.91,29.86,2,0,9,0.00
2013-3-23,54.2,42.2,33.5,30.6,21.8,11.4,66,45,28,29.96,29.80,3,0,11,0.00
2013-3-24,41.4,34.5,30.5,32.8,30.1,27.4,96,85,58,29.82,29.48,4,1,11,0.42
2013-3-25,42.9,39.0,33.9,23.3,20.4,18.9,58,47,39,29.70,29.51,8,4,24,0.04
2013-3-26,40.9,37.7,34.3,23.8,22.0,20.7,63,53,46,30.04,29.92,4,2,14,0.00
2013-3-27,45.1,38.8,32.3,20.3,18.2,14.9,59,44,32,30.16,30.09,6,2,16,0.00
2013-3-28,53.1,39.6,29.0,22.7,19.6,17.4,69,47,26,30.19,30.08,7,2,17,0.00
2013-3-29,58.5,45.0,31.0,24.5,20.1,17.3,62,40,21,30.24,30.05,5,1,15,0.00
2013-3-30,62.5,49.9,36.3,32.3,25.1,20.1,67,40,21,30.13,29.96,3,0,12,0.00
2013-3-31,62.0,50.8,43.5,51.2,44.1,31.6,97,79,54,29.96,29.67,4,1,16,0.24
2013-4-1,63.0,56.6,44.8,38.7,34.5,31.3,60,44,38,29.85,29.73,7,4,24,0.00
2013-4-2,55.8,51.1,47.2,15.8,13.8,11.4,27,22,17,30.01,29.95,4,1,16,0.00
2013-4-3,48.1,45.9,44.3,15.4,13.5,10.7,28,27,25,30.20,30.13,1,0,3,0.00
2013-4-4,31.8,31.4,31.2,30.5,29.8,28.6,96,94,89,30.13,29.93,4,2,10,0.69
2013-4-5,63.5,56.4,49.7,30.1,27.9,20.7,42,34,20,29.93,29.79,5,2,14,0.01
2013-4-6,62.3,51.0,35.9,31.4,27.4,25.2,71,42,26,30.15,29.93,3,1,12,0.00
2013-4-7,69.6,54.4,39.1,43.2,36.4,26.6,79,53,31,30.14,29.97,6,2,22,0.00
2013-4-8,77.1,71.1,61.7,49.5,47.8,46.2,60,44,35,29.96,29.90,6,2,19,0.00
2013-4-9,81.9,73.4,65.9,52.3,50.1,45.6,61,45,28,29.95,29.92,5,1,15,0.00
2013-4-10,84.2,78.5,67.7,53.8,51.8,49.1,59,41,30,29.89,29.80,5,2,19,0.00
2013-4-11,78.8,73.4,68.7,57.3,55.7,52.3,66,55,40,29.69,29.62,5,2,23,0.00
2013-4-12,78.4,69.8,57.2,61.6,46.5,34.3,68,44,28,29.65,29.46,6,3,19,0.93
2013-4-13,73.6,59.4,43.4,39.7,33.1,25.7,70,40,18,29.90,29.65,5,1,20,0.00
2013-4-14,76.8,62.8,46.0,43.4,34.2,27.6,62,37,18,29.98,29.87,3,1,14,0.00
2013-4-15,62.6,57.5,52.4,53.5,52.6,51.6,97,84,71,30.10,30.00,1,0,5,0.09
2013-4-16,76.2,70.6,64.6,57.1,55.8,54.3,74,60,47,30.10,30.05,1,0,10,0.00
2013-4-17,77.1,70.5,64.4,56.7,55.6,54.4,73,60,47,30.02,29.99,1,0,6,0.00
2013-4-18,75.5,71.6,67.7,56.7,54.2,51.3,67,55,43,29.92,29.87,4,1,15,0.00
2013-4-19,72.9,61.9,52.8,63.8,57.4,41.4,95,86,65,29.74,29.56,8,2,25,0.18
2013-4-20,61.7,50.7,41.4,41.5,30.7,24.3,76,49,25,30.18,29.74,5,1,17,0.00
2013-4-21,57.9,47.6,39.1,36.0,30.8,25.7,77,53,35,30.41,30.18,3,0,13,0.00
2013-4-22,58.2,53.3,49.4,33.9,29.5,23.6,55,41,27,30.20,30.18,0,0,5,0.00
2013-4-23,66.7,61.9,55.9,46.5,45.2,42.4,70,55,42,30.02,29.99,1,0,8,0.00
2013-4-24,68.7,65.3,59.8,52.5,51.9,51.2,75,62,54,29.88,29.85,3,1,17,0.00
2013-4-25,68.2,59.0,48.4,35.6,26.1,20.7,57,30,17,30.19,30.07,2,0,7,0.00
2013-4-26,67.1,55.2,40.1,43.7,32.0,26.1,72,44,24,30.33,30.19,2,0,10,0.00
2013-4-27,66.9,56.2,49.1,51.1,45.6,36.7,92,69,43,30.24,30.15,1,0,7,0.03
2013-4-28,53.4,51.7,49.6,51.6,50.2,48.8,97,95,90,30.15,29.96,2,0,15,0.91
2013-4-29,65.2,59.7,54.6,55.2,53.7,52.5,93,81,65,29.92,29.87,0,0,2,0.28
2013-4-30,66.2,61.3,53.3,55.6,53.5,50.5,92,76,67,30.09,29.99,1,0,7,0.00
2013-5-1,63.3,58.1,55.3,51.8,50.5,49.2,84,76,65,30.23,30.15,1,0,13,0.00
2013-5-2,58.1,54.9,49.9,52.0,50.1,47.4,91,84,78,30.20,30.16,0,0,4,0.00
2013-5-3,59.6,55.0,49.7,48.7,45.3,41.4,74,70,64,30.11,30.07,1,0,10,0.00
2013-5-4,58.4,50.3,45.1,46.6,42.0,38.5,83,74,56,30.11,30.00,3,0,13,0.00
2013-5-10,79.5,68.4,52.1,59.8,55.9,49.3,92,67,41,29.94,29.79,2,0,17,0.06
2013-5-11,76.0,66.4,60.7,60.0,58.6,57.0,93,77,54,29.81,29.67,2,0,13,0.01
2013-5-12,65.7,58.7,48.5,59.0,40.8,28.4,94,56,25,29.94,29.69,4,1,17,0.00
2013-5-13,63.6,56.8,45.4,35.3,27.7,22.1,67,35,21,30.07,29.94,3,1,14,0.00
2013-5-14,68.2,62.0,53.3,43.9,40.7,37.1,65,47,32,29.99,29.94,2,1,14,0.00
2013-5-15,85.7,78.0,70.1,60.8,59.3,57.5,68,54,39,29.81,29.76,2,1,16,0.00
2013-5-16,77.3,72.2,66.9,62.4,59.2,56.8,71,64,50,29.86,29.80,1,0,9,0.00
2013-5-17,81.7,71.8,62.2,64.0,61.2,55.5,95,72,41,29.97,29.90,1,0,9,0.26
2013-5-18,68.4,63.2,59.3,64.5,61.4,58.2,98,94,82,30.06,29.96,0,0,5,0.14
2013-5-19,70.6,64.6,60.9,67.2,63.0,59.9,98,95,86,30.02,29.93,0,0,6,0.52
2013-5-20,75.9,68.9,64.6,68.8,64.5,61.9,96,86,70,29.95,29.90,1,0,7,1.07
2013-5-21,79.0,74.0,69.8,67.8,66.6,64.7,88,78,64,29.84,29.79,1,0,9,0.00
2013-5-22,80.9,73.0,62.8,67.6,63.7,59.7,95,74,59,29.86,29.75,2,1,11,0.18
2013-5-23,74.1,67.7,60.9,65.3,62.2,58.8,95,83,71,29.78,29.69,3,0,15,0.21
2013-5-24,63.5,55.6,45.9,42.1,38.5,36.1,75,53,38,30.10,29.98,2,0,9,0.00
2013-5-25,72.9,55.8,39.5,44.4,35.5,27.7,86,52,20,30.17,30.04,2,0,14,0.00
2013-5-26,72.2,59.8,50.3,50.9,44.0,35.9,78,57,36,30.17,30.05,2,0,12,0.00
2013-5-27,76.8,72.0,62.5,58.2,54.6,50.0,74,55,41,30.13,30.02,2,0,11,0.00
2013-5-28,81.1,75.5,66.4,61.2,60.2,59.0,82,60,47,30.03,30.00,2,1,14,0.00
2013-5-29,82.1,74.4,66.7,61.3,60.0,59.0,78,62,48,30.06,30.02,1,0,9,0.00
2013-5-30,82.4,74.8,65.7,60.7,59.6,57.7,79,60,43,30.07,30.05,0,0,5,0.00
2013-5-31,82.3,75.5,65.6,64.7,61.2,59.1,84,63,47,30.02,29.97,1,0,11,0.00
2013-6-1,83.6,72.3,63.5,65.9,61.4,57.2,96,72,41,29.99,29.88,2,1,15,0.00
2013-6-2,78.2,68.6,64.4,66.3,63.5,60.2,98,84,65,29.89,29.78,2,0,13,1.90
2013-6-3,78.8,71.8,65.6,68.3,65.7,61.8,94,82,61,29.83,29.71,1,0,8,0.07
2013-6-4,73.7,69.7,62.6,63.1,61.1,59.6,90,74,64,29.99,29.93,1,0,6,0.00
2013-6-5,66.2,64.6,63.1,60.2,59.8,59.2,89,85,81,29.98,29.92,1,0,5,0.00
2013-6-6,64.9,64.2,63.3,64.3,63.6,62.7,98,98,98,29.73,29.70,0,0,2,1.49
2013-6-7,74.3,69.7,64.6,68.9,66.6,62.8,95,90,79,29.71,29.52,1,0,7,0.27
2013-6-8,79.0,68.7,59.2,64.2,61.0,57.4,96,79,50,29.97,29.71,1,0,9,0.23
2013-6-9,84.8,71.7,61.4,69.2,64.4,60.1,97,80,48,30.04,29.92,2,0,16,0.19
2013-6-10,78.1,71.6,66.1,71.1,67.4,64.4,95,87,73,29.85,29.74,2,0,17,0.99
2013-6-11,81.3,74.9,67.2,63.1,61.4,60.0,82,64,50,29.85,29.78,0,0,8,0.02
2013-6-12,88.6,83.4,75.1,74.7,72.4,70.5,87,70,57,29.76,29.73,1,0,10,0.00
2013-6-13,84.8,69.8,67.2,68.4,61.4,53.7,81,75,58,29.64,29.47,2,0,12,0.01
2013-6-14,77.1,67.3,57.0,58.2,54.0,51.3,85,64,44,29.92,29.64,3,0,14,0.00
2013-6-15,81.3,69.1,55.2,60.9,55.6,51.4,88,65,41,30.02,29.91,1,0,10,0.00
2013-6-16,82.8,72.3,62.5,66.7,62.1,58.2,88,72,52,29.99,29.87,2,0,15,0.00
2013-6-17,76.8,73.8,70.1,67.9,66.8,65.2,88,79,68,29.83,29.81,0,0,4,0.03
2013-6-18,69.2,67.5,64.9,67.1,65.6,63.7,96,94,90,29.78,29.69,0,0,3,0.72
2013-6-19,77.1,71.8,65.7,64.8,63.5,62.1,90,76,60,29.99,29.91,1,0,7,0.00
2013-6-21,78.8,69.5,60.6,61.8,58.5,55.5,85,70,52,30.12,30.09,1,0,5,0.00
2013-6-22,80.7,68.8,59.5,67.5,62.1,54.6,95,80,59,30.14,30.00,0,0,5,0.00
2013-6-23,85.3,74.0,63.0,69.0,65.1,61.1,97,76,45,30.09,29.99,1,0,10,0.00
2013-6-24,84.0,77.2,71.5,71.4,68.3,66.7,85,74,59,29.98,29.94,2,0,13,0.00
2013-6-25,86.3,77.7,72.3,70.4,68.1,66.7,83,73,55,29.90,29.86,1,0,9,0.00
2013-6-26,68.2,67.1,65.9,65.2,64.7,64.3,95,92,88,29.83,29.80,0,0,4,0.03
2013-6-28,78.1,74.1,67.9,69.6,67.4,64.1,89,80,72,29.53,29.46,1,0,9,0.05
2013-6-29,83.2,73.4,65.4,67.8,65.5,62.7,97,78,53,29.58,29.47,2,0,11,0.00
2013-6-30,82.8,72.9,67.9,70.8,67.3,65.1,96,84,59,29.72,29.57,2,0,10,0.04
2013-7-1,79.2,74.7,71.1,67.5,66.9,66.2,86,77,66,29.85,29.77,1,0,11,0.05
2013-7-2,72.2,69.8,69.4,68.2,66.9,66.2,92,91,87,30.05,29.97,1,0,12,0.06
2013-7-3,77.5,72.5,70.3,71.9,70.6,69.2,97,94,79,30.10,30.06,1,0,6,0.52
2013-7-4,83.8,73.2,68.1,73.5,69.3,66.9,98,89,59,30.14,30.05,1,0,24,0.30
2013-7-5,81.9,75.4,69.2,71.7,69.5,67.7,95,83,63,30.10,30.05,1,0,10,0.01
2013-7-6,82.3,73.7,68.1,70.5,68.1,65.5,98,84,58,30.13,29.99,1,0,10,0.47
2013-7-7,80.9,72.2,66.9,73.6,69.0,64.7,98,90,68,30.07,29.95,1,0,14,1.00
2013-7-8,83.4,79.3,71.8,69.8,67.9,65.4,89,69,55,30.02,29.97,1,0,5,0.71
2013-7-9,84.2,78.8,74.1,72.6,71.3,70.3,89,78,65,29.96,29.92,0,0,2,0.00
2013-7-10,82.1,77.3,72.0,73.0,70.3,67.4,87,79,71,29.85,29.81,1,0,7,0.00
2013-7-11,69.2,68.9,68.6,68.0,67.8,66.8,97,96,94,29.78,29.76,0,0,4,0.31
2013-7-12,64.9,64.9,64.7,63.1,63.0,62.6,94,94,93,29.93,29.92,0,0,1,0.05
2013-7-13,75.0,69.0,65.1,69.4,66.5,63.0,98,92,80,30.05,29.93,0,0,7,0.07
2013-7-14,83.0,74.4,68.7,70.5,68.5,66.6,98,83,59,30.19,30.05,2,0,16,0.18
2013-7-15,85.0,80.9,71.5,70.8,67.8,64.1,87,65,51,30.22,30.13,1,0,9,0.00
2013-7-16,89.5,84.3,75.3,74.0,70.5,65.8,84,64,47,30.16,30.07,1,0,7,0.00
2013-7-17,87.6,81.2,75.7,74.0,71.7,69.0,88,74,60,30.04,29.99,1,0,5,0.01
2013-7-18,88.8,87.0,83.6,72.1,70.4,68.3,65,58,51,29.95,29.91,0,0,0,0.00
2013-7-19,86.5,79.9,73.9,72.0,70.8,69.5,89,75,58,29.89,29.84,0,0,0,0.00
2013-7-20,85.0,74.5,71.0,72.5,69.7,64.7,94,85,58,29.88,29.79,0,0,0,0.02
2013-7-21,86.5,73.2,67.1,72.6,68.9,66.0,97,88,57,29.86,29.81,0,0,0,0.37
2013-7-22,80.3,75.3,72.0,70.3,69.8,68.8,93,83,70,29.72,29.70,0,0,0,0.00
2013-7-23,84.8,79.7,73.6,70.7,68.8,66.7,80,70,57,29.65,29.61,0,0,0,0.00
2013-7-24,82.1,76.7,71.5,67.3,65.6,63.5,80,69,59,29.72,29.65,0,0,0,0.00
2013-7-25,75.9,71.2,66.6,65.6,64.7,63.8,91,80,67,29.92,29.85,0,0,0,0.19
2013-7-26,80.3,73.8,66.9,65.7,64.4,62.8,90,74,56,29.92,29.90,0,0,0,0.00
2013-7-27,68.6,66.6,64.4,67.7,65.1,62.3,97,95,91,29.93,29.83,0,0,0,1.08
2013-7-28,81.7,72.0,65.6,69.3,66.5,64.1,98,84,56,29.87,29.79,0,0,0,0.00
2013-7-29,78.6,71.5,65.7,62.9,60.6,57.9,82,70,50,30.07,29.97,0,0,0,0.00
2013-7-30,77.1,72.8,68.4,67.1,65.6,64.4,89,79,65,30.05,30.03,0,0,0,0.00
2013-7-31,71.3,67.9,66.4,66.9,65.2,64.6,95,91,86,29.91,29.89,0,0,0,0.02
2013-8-1,82.8,78.6,71.3,69.5,67.5,64.4,89,70,55,29.81,29.74,0,0,0,0.15
2013-8-2,82.8,75.5,69.6,68.6,66.4,63.1,89,74,53,29.90,29.86,0,0,0,0.00
2013-8-3,84.4,74.0,66.1,70.3,66.7,64.0,95,79,53,29.90,29.79,0,0,0,0.00
2013-8-4,80.7,72.5,66.7,69.4,63.9,56.3,98,77,44,29.89,29.79,0,0,0,0.07
2013-8-5,77.5,73.2,67.2,65.9,64.6,62.6,93,75,63,29.94,29.88,0,0,0,0.13
2013-8-6,75.9,71.2,63.0,68.4,65.4,61.8,96,82,75,29.94,29.89,0,0,0,0.01
2013-8-7,72.0,71.1,70.4,67.6,67.1,66.5,89,87,86,29.92,29.91,0,0,0,0.00
2013-8-8,80.9,76.5,72.0,72.1,71.1,70.0,95,84,70,29.90,29.87,0,0,0,0.06
2013-8-9,86.1,77.8,69.6,72.5,70.2,67.4,94,79,60,29.92,29.84,0,0,0,0.03
2013-8-10,86.3,73.2,68.4,74.4,69.3,67.0,98,89,59,29.96,29.90,0,0,1,0.14
2013-8-11,84.8,72.9,65.6,72.9,69.1,65.0,98,89,60,30.00,29.91,1,0,7,0.31
2013-8-13,78.4,74.1,71.3,70.5,69.5,67.9,91,86,76,29.74,29.68,0,0,6,0.00
2013-8-14,72.7,65.6,60.3,57.2,56.3,55.4,88,73,55,29.98,29.89,0,0,3,0.00
2013-8-15,66.9,61.2,57.0,55.3,54.6,53.6,90,80,65,30.04,30.00,0,0,0,0.00
2013-8-16,69.1,61.8,56.3,57.8,56.1,54.1,93,82,66,30.09,30.03,0,0,4,0.00
2013-8-17,62.0,58.9,55.3,60.1,57.4,53.3,99,95,88,30.12,30.05,0,0,7,0.57
2013-8-18,70.8,64.5,60.6,65.5,62.5,60.0,99,94,79,30.13,30.03,0,0,5,0.65
2013-8-19,72.5,69.1,65.2,67.1,65.7,64.0,96,89,79,30.01,29.98,0,0,5,0.34
2013-8-20,78.1,73.5,68.9,68.1,67.3,66.5,94,82,68,30.06,30.01,0,0,4,0.00
2013-8-21,81.3,76.6,72.2,71.9,70.7,69.3,94,82,68,30.03,29.98,1,0,9,0.00
2013-8-23,80.3,70.5,61.2,69.2,64.7,60.3,97,83,61,30.00,29.83,1,0,6,0.35
2013-8-24,76.8,65.2,58.5,63.2,58.8,54.4,98,82,48,30.20,30.00,1,0,7,0.01
2013-8-25,76.8,65.9,55.9,62.4,58.2,54.2,96,78,49,30.29,30.19,0,0,7,0.00
2013-8-26,80.1,72.4,65.1,64.1,61.8,57.9,88,71,47,30.04,30.00,0,0,4,0.00
2013-8-27,83.6,77.7,72.2,72.0,69.7,67.1,86,77,62,29.88,29.85,0,0,2,0.00
2013-8-28,80.9,77.1,74.1,72.2,71.2,69.9,89,82,75,29.78,29.75,1,0,10,0.00
2013-8-29,82.3,75.1,70.3,70.7,68.6,66.6,89,81,68,29.90,29.81,1,0,6,0.02
2013-8-30,82.6,75.9,67.9,68.2,66.2,63.5,92,73,56,29.89,29.82,1,0,7,0.00
2013-8-31,85.0,71.6,64.7,71.1,66.5,62.9,97,85,58,29.83,29.74,3,0,13,0.10
2013-9-1,83.6,71.1,64.9,72.2,67.7,64.0,99,90,64,29.78,29.67,1,0,9,0.07
2013-9-2,85.7,73.9,65.1,71.8,67.7,64.5,99,83,51,29.77,29.68,1,0,10,0.01
2013-9-3,84.8,74.6,67.6,70.0,67.2,61.9,96,79,55,29.83,29.67,1,0,5,0.00
2013-9-4,81.3,73.3,62.8,62.6,60.5,56.8,89,66,45,29.98,29.92,1,0,6,0.00
2013-9-5,82.6,75.3,68.7,63.8,61.0,58.5,74,62,45,29.97,29.93,0,0,4,0.00
2013-9-6,76.2,66.9,58.1,58.7,57.1,55.0,90,72,51,30.04,30.00,1,0,4,0.00
2013-9-7,78.6,65.7,55.2,64.2,59.0,53.2,95,80,55,30.03,29.86,2,0,10,0.00
2013-9-8,82.8,72.2,60.9,66.9,63.4,58.6,93,76,51,29.86,29.81,0,0,4,0.00
2013-9-9,79.5,73.8,68.6,68.6,67.5,66.0,92,81,64,30.03,29.98,0,0,3,0.00
2013-9-10,83.8,77.0,71.6,69.6,68.1,66.6,86,75,57,30.09,30.02,1,0,6,0.00
2013-9-11,78.8,73.7,70.3,70.0,68.6,67.3,91,84,74,29.98,29.95,0,0,2,0.00
2013-9-12,77.3,70.9,65.6,72.8,67.7,64.1,96,90,82,29.76,29.71,1,0,9,0.25
2013-9-13,74.1,64.7,58.4,54.5,49.9,47.2,67,59,45,29.82,29.70,1,0,9,0.00
2013-9-14,72.2,59.9,50.2,53.9,49.2,46.5,90,70,41,30.04,29.82,1,0,7,0.00
2013-9-15,75.5,61.1,49.0,60.0,53.3,47.3,96,77,50,30.14,30.02,1,0,10,0.00
2013-9-16,72.3,68.9,65.9,62.5,59.7,57.4,75,73,70,30.07,29.98,0,0,0,0.00
2013-9-17,69.8,60.6,55.2,53.1,51.6,50.4,85,73,53,30.19,30.15,0,0,4,0.00
2013-9-19,68.7,65.9,63.1,61.4,60.5,59.6,90,83,75,29.99,29.98,0,0,0,0.00
2013-9-20,67.7,65.0,64.1,64.3,63.3,62.8,96,94,89,29.89,29.85,0,0,1,0.17
2013-9-21,69.9,64.4,60.1,67.5,63.4,59.2,98,97,88,29.85,29.59,2,0,13,0.60
2013-9-22,72.3,62.0,53.6,58.9,55.3,52.7,98,81,51,29.79,29.63,0,0,1,0.01
2013-9-23,62.5,61.2,59.8,53.6,53.0,52.6,80,74,72,29.92,29.92,0,0,1,0.00
2013-9-25,65.1,61.1,58.4,59.8,58.9,57.3,96,93,80,29.81,29.79,0,0,1,0.08
2013-9-26,65.4,59.7,55.3,53.0,51.8,50.4,88,76,61,29.93,29.88,0,0,0,0.00
2013-9-27,71.3,61.5,54.3,54.4,52.7,51.9,92,74,51,30.10,30.02,0,0,1,0.00
2013-9-28,66.1,57.0,51.2,55.5,51.4,48.8,97,83,59,30.17,30.09,1,0,7,0.00
2013-9-29,69.6,57.7,50.2,54.3,51.1,48.5,95,80,54,30.10,29.94,0,0,0,0.00
2013-10-1,74.8,68.7,62.3,59.3,57.7,55.9,85,69,56,29.96,29.92,0,0,0,0.00
2013-10-2,74.6,67.7,62.3,60.0,58.7,57.7,85,73,59,29.98,29.95,0,0,0,0.00
2013-10-3,82.3,72.9,62.3,60.5,58.5,56.2,87,63,43,29.98,29.93,0,0,0,0.00
2013-10-4,68.2,60.6,57.8,63.9,58.3,56.4,96,92,84,30.02,29.97,0,0,0,0.00
2013-10-5,84.8,71.8,61.2,65.2,61.2,57.9,91,72,43,30.01,29.91,0,0,0,0.00
2013-10-6,80.3,68.9,59.3,64.2,60.7,57.9,96,77,51,29.93,29.80,2,0,11,0.00
2013-10-8,61.8,54.9,50.3,47.2,45.8,44.4,80,72,57,30.14,30.08,0,0,2,0.00
2013-10-9,64.6,58.1,53.0,48.5,46.7,45.1,77,66,54,30.08,30.06,1,0,6,0.00
2013-10-10,63.6,62.2,60.9,56.3,55.9,55.6,84,80,76,29.89,29.87,0,0,3,0.07
2013-10-11,68.6,65.0,61.8,60.9,59.4,58.3,89,82,73,29.87,29.81,0,0,3,0.00
2013-10-12,64.9,61.4,57.8,61.6,58.0,54.3,96,89,77,30.00,29.86,1,0,5,0.04
2013-10-13,63.8,59.7,57.9,60.2,58.4,56.4,98,95,86,30.14,30.00,0,0,10,0.08
2013-10-15,68.4,61.0,56.7,54.5,52.6,49.9,88,75,52,30.00,29.98,0,0,2,0.00
2013-10-16,70.8,64.9,59.6,57.4,56.3,55.1,88,74,58,29.88,29.84,1,0,6,0.00
2013-10-17,63.1,62.4,62.0,61.3,61.2,60.8,97,96,94,29.77,29.72,1,0,4,0.09
2013-10-18,63.9,55.4,50.2,50.7,48.6,47.0,92,79,55,29.90,29.86,0,0,3,0.01
2013-10-19,58.1,53.0,48.4,55.8,51.3,46.8,97,94,89,29.89,29.73,1,0,5,0.02
2013-10-20,61.2,49.3,39.4,49.1,38.3,31.2,97,69,33,30.02,29.83,1,0,6,0.00
2013-10-21,61.7,54.5,50.5,48.7,47.4,46.8,88,78,59,29.94,29.91,0,0,4,0.00
2013-10-22,57.3,55.2,53.1,51.1,50.4,49.8,89,84,79,29.74,29.71,0,0,0,0.00
2013-10-23,55.6,46.7,41.4,31.3,30.2,29.3,64,53,38,29.91,29.69,6,2,21,0.00
2013-10-24,53.6,44.4,37.8,31.9,30.0,27.9,78,58,37,30.08,29.98,4,1,18,0.00
2013-10-25,46.3,37.6,31.1,25.9,24.7,23.7,77,61,42,30.29,30.24,1,0,7,0.00
2013-10-26,54.3,41.0,26.4,32.8,26.7,22.2,86,60,35,30.28,29.95,3,1,15,0.00
2013-10-27,64.1,50.5,37.8,40.1,35.8,32.3,82,60,35,30.03,29.93,3,0,13,0.00
2013-10-28,65.7,57.9,48.4,52.4,49.7,44.4,86,75,54,30.16,30.11,1,0,6,0.00
2013-10-29,68.7,61.5,52.5,52.6,50.1,48.5,90,67,50,30.24,30.13,1,0,9,0.00
2013-10-30,64.6,63.2,62.0,55.8,55.3,55.0,80,75,72,30.08,30.07,0,0,0,0.00
2013-10-31,66.4,63.1,60.6,54.9,53.6,52.7,79,72,63,29.89,29.78,3,0,11,0.00
2013-11-1,66.9,60.0,52.8,61.4,56.4,51.7,97,88,79,29.63,29.52,2,0,13,0.14
2013-11-2,66.6,54.8,45.3,52.9,40.7,30.3,98,65,28,29.87,29.59,5,1,18,0.01
2013-11-3,58.8,47.8,38.6,34.6,32.0,28.9,79,56,33,30.27,29.87,5,1,15,0.00
2013-11-4,49.9,41.9,37.4,31.8,28.6,27.1,68,60,42,30.47,30.39,0,0,4,0.00
2013-11-5,54.6,50.5,47.7,42.0,40.9,38.9,77,70,62,30.39,30.36,0,0,4,0.00
2013-11-6,53.1,52.5,51.4,47.8,47.0,45.4,83,82,80,30.03,30.03,0,0,0,0.00
2013-11-7,52.2,46.4,42.5,32.0,29.4,28.4,58,51,45,30.02,29.93,3,1,12,0.00
2013-11-8,50.5,39.6,32.9,22.8,20.9,19.0,66,48,29,30.23,30.16,1,0,5,0.00
2013-11-9,51.7,39.6,28.2,27.9,23.8,19.0,76,55,32,30.28,30.07,3,0,10,0.00
2013-11-10,66.1,48.9,34.5,36.4,25.7,16.6,73,45,20,30.15,29.98,8,2,21,0.00
2013-11-11,54.5,45.2,39.8,25.9,23.7,20.7,55,44,27,30.10,30.04,1,0,4,0.00
2013-11-12,37.4,33.0,28.6,23.3,15.9,12.7,57,49,44,30.35,30.18,6,3,21,0.00
2013-11-13,38.2,33.8,30.5,14.9,11.1,7.6,51,39,30,30.41,30.39,0,0,3,0.00
2013-11-14,55.9,44.7,38.2,19.7,18.1,14.8,43,35,20,30.24,30.22,2,0,10,0.00
2013-11-15,57.1,51.7,47.3,45.3,40.9,37.9,92,68,53,30.15,30.11,1,0,3,0.01
2013-11-16,54.9,50.8,46.6,52.6,49.1,45.1,97,94,89,30.18,30.10,0,0,3,0.00
2013-11-17,61.4,55.9,52.9,57.7,54.4,51.5,98,95,84,30.12,29.77,2,0,7,0.00
2013-11-18,63.2,55.8,50.3,29.5,26.8,23.7,42,33,27,29.89,29.75,4,2,14,0.00
2013-11-19,49.1,42.2,38.6,26.3,25.3,23.6,59,51,37,30.21,30.06,0,0,3,0.00
2013-11-20,45.1,40.6,38.2,26.7,25.8,24.7,58,55,48,30.38,30.31,0,0,2,0.00
2013-11-21,48.8,47.4,46.6,40.5,39.9,39.5,77,75,72,30.33,30.30,0,0,3,0.00
2013-11-22,59.5,53.6,46.7,55.0,48.6,39.7,96,83,75,30.31,29.98,4,1,16,0.00
2013-11-23,58.2,49.6,35.3,54.1,33.6,11.7,97,59,24,30.12,29.96,6,2,19,0.00
2013-11-24,35.3,28.7,24.0,17.7,3.0,-4.8,49,34,19,30.46,30.12,7,3,19,0.00
2013-11-26,41.5,40.1,38.4,41.0,39.6,37.9,98,98,98,29.66,29.54,5,1,9,0.49
2013-11-27,35.9,29.2,25.1,22.6,14.8,10.8,59,54,52,30.09,29.70,6,3,19,0.20
2013-11-28,40.8,28.8,18.7,18.3,14.6,10.8,79,57,33,30.38,30.09,2,0,6,0.00
2013-11-29,47.5,34.4,24.1,24.5,19.3,14.6,72,55,33,30.55,30.37,2,0,7,0.00
2013-11-30,42.9,31.8,24.6,22.1,19.5,17.6,78,62,39,30.59,30.29,1,0,5,0.00
2013-12-1,54.4,37.2,22.8,28.8,23.8,17.8,84,61,33,30.29,29.92,2,0,10,0.00
2013-12-2,55.9,43.6,30.2,35.6,31.3,25.1,85,64,41,29.92,29.73,2,0,7,0.00
2013-12-3,54.9,51.2,48.5,45.2,44.0,43.3,86,77,66,29.88,29.80,0,0,4,0.00
2013-12-4,57.7,55.0,54.1,53.3,52.9,52.0,96,93,82,29.94,29.88,1,0,7,0.02
2013-12-5,61.6,61.1,60.8,61.3,60.8,60.5,99,99,99,29.91,29.89,2,1,11,0.07
2013-12-6,72.6,69.2,60.0,61.7,59.5,57.4,91,72,63,29.89,29.79,8,3,25,0.21
2013-12-7,60.0,46.0,38.6,57.4,39.3,31.7,96,78,63,30.37,29.87,4,1,11,0.08
2013-12-8,38.6,32.0,29.9,31.9,29.0,27.2,96,89,72,30.38,30.24,1,0,11,0.39
2013-12-9,40.5,39.3,35.2,40.0,38.8,34.7,98,98,98,30.02,29.98,1,0,9,0.26
2013-12-10,44.5,34.5,27.7,29.3,23.3,18.8,81,64,50,30.21,30.00,7,2,22,0.36
2013-12-11,46.1,37.8,31.5,24.9,22.1,17.8,70,54,32,30.22,30.19,3,0,10,0.00
2013-12-12,36.8,32.5,28.3,10.9,5.4,3.1,45,32,25,30.30,30.26,2,0,9,0.00
2013-12-13,45.7,39.5,35.9,26.0,19.3,16.0,63,44,30,30.20,30.17,2,0,9,0.00
2013-12-14,36.9,34.9,33.7,33.8,29.8,19.9,97,83,50,30.18,29.70,2,0,9,0.61
2013-12-15,46.9,38.2,28.8,39.7,30.6,24.0,98,76,50,29.96,29.63,5,2,19,0.00
2013-12-16,48.8,43.0,37.6,31.7,30.2,29.2,74,61,48,30.02,29.99,1,0,6,0.00
2013-12-17,59.7,52.2,41.8,35.7,33.1,28.2,68,49,35,29.94,29.77,9,2,25,0.00
2013-12-20,61.6,56.6,49.2,45.0,40.3,34.4,83,56,37,30.03,29.99,4,2,17,0.00
2013-12-21,65.1,55.9,46.3,59.4,51.3,43.8,97,85,70,30.01,29.85,5,2,18,0.00
2013-12-22,68.6,62.6,58.0,64.0,59.9,57.1,99,91,79,29.94,29.82,6,2,22,0.94
2013-12-23,42.5,39.5,36.6,34.1,30.0,27.0,72,69,65,30.09,30.05,5,2,16,0.98
2013-12-24,41.9,34.3,23.7,27.4,20.2,10.3,72,57,33,30.39,30.07,6,2,18,0.00
2013-12-25,35.8,26.2,18.8,12.3,8.3,3.5,65,48,28,30.48,30.32,2,0,10,0.00
2013-12-26,51.2,42.6,34.3,24.4,20.0,16.1,49,41,30,30.28,30.14,4,1,12,0.00
2013-12-27,49.5,40.9,33.7,19.7,17.3,13.9,53,39,24,30.33,30.27,2,0,7,0.00
2013-12-28,54.1,40.5,28.3,37.8,24.7,17.3,93,56,26,30.30,30.04,3,0,11,0.12
2013-12-29,55.5,43.7,38.8,48.2,39.9,37.5,98,87,63,30.05,29.61,6,1,18,0.78
2013-12-30,39.2,38.0,37.5,30.9,30.2,29.4,75,73,72,30.04,30.03,0,0,1,0.00
2013-12-31,46.0,37.2,30.2,23.2,20.2,18.2,69,51,35,30.27,30.13,4,0,17,0.00
2014-1-1,46.4,35.0,26.8,27.3,22.3,18.9,79,61,36,30.30,30.08,3,0,11,0.00
2014-1-2,38.6,37.4,35.5,37.2,36.1,31.1,96,95,84,29.59,29.54,2,0,13,0.34